Tracking 27079 objects as of 23-Mar-2023
HD Live streaming from Space Station
objects crossing your sky now

CLUSTER II-FM7

Track CLUSTER II-FM7 now!
CLUSTER II-FM7 is classified as:


NORAD ID: 26411
Int'l Code: 2000-041B
Perigee: 8,115.9 km
Apogee: 124,720.4 km
Inclination: 139.7 °
Period: 3,257.3 minutes
Semi major axis: 72789 km
RCS: 1.5887 m2 (large)
Launch date: July 16, 2000
Source: European Space Agency (ESA)
Launch site: TYURATAM MISSILE AND SPACE COMPLEX (TTMTR)
Your satellite tracking list
Your tracking list is empty




NASA's NSSDC Master Catalog

Two Line Element Set (TLE):
1 26411U 00041B   23082.02817967 -.00000044  00000-0  00000-0 0  9993
2 26411 139.6970 357.4952 8009748 211.1411   0.3005  0.44208234 15105
Source of the keplerian elements: AFSPC